Tracking 19717 objects as of 25-Jun-2019
HD Live streaming from Space Station
objects crossing your sky now

DELTA 1 DEB

Track DELTA 1 DEB now!
10-day predictions


NORAD ID: 13575
Int'l Code: 1978-026FN
Perigee: 872.6 km
Apogee: 898.8 km
Inclination: 99.0 °
Period: 102.5 minutes
Semi major axis: 7256 km
RCS: 0.035 m2 (small)
Launch date: March 5, 1978
Source: United States (US)
Launch site: AIR FORCE WESTERN TEST RANGE (AFWTR)

Note: This is SATELLITE DEBRIS
aabbcc
Your satellite tracking list
Your tracking list is empty




NASA's NSSDC Master Catalog

Two Line Element Set (TLE):
1 13575U 78026FN  19174.82003787 +.00000222 +00000-0 +16739-3 0  9996
2 13575 099.0244 137.6658 0018071 289.7718 070.1499 14.04416371946949
Source of the keplerian elements: AFSPC